Wind_Speed
11 11 11 11 11 10 10 10 10 11 11 12 12 13 13 13 13 13 13 13 14 13 13 13 12 12 11 11 11 10 10 10 10 10 10 10 10 10 10 9 9 9 9
11 12 12 11 11 11 10 11 11 12 12 13 13 14 14 14 14 14 14 14 15 14 14 13 13 13 13 13 12 12 11 11 11 11 11 11 11 11 11 10 10 10 10
12 12 12 12 12 12 11 12 12 12 13 14 14 15 15 15 15 15 15 15 16 16 15 14 14 14 14 14 13 13 12 12 12 12 12 12 12 12 12 11 10 10 10
12 13 13 12 13 13 13 13 13 13 13 14 15 15 15 15 16 16 16 16 16 16 16 16 16 15 15 15 15 14 14 13 13 13 13 12 12 12 12 11 11 11 10
13 13 13 13 13 13 13 13 14 14 14 14 15 15 16 16 17 17 17 17 17 17 17 17 17 16 16 16 16 16 15 15 14 14 14 13 13 12 12 12 12 12 11
14 14 14 14 14 13 14 14 14 14 15 15 15 16 16 17 17 17 18 18 18 18 18 18 17 17 17 17 17 17 16 16 15 15 15 15 15 14 13 13 13 13 13
15 15 15 15 15 14 15 15 15 15 15 16 17 17 17 17 17 18 18 18 19 19 19 18 18 18 18 18 18 18 17 17 16 16 16 15 15 15 14 14 14 15 14
15 15 15 16 16 16 16 16 16 17 17 17 18 18 18 18 18 19 19 19 20 20 20 19 19 19 19 19 19 19 19 18 17 17 17 16 16 16 16 16 16 16 16
15 16 16 17 17 17 17 17 18 18 18 18 19 19 20 19 19 19 20 20 21 22 21 20 20 20 20 20 19 20 20 19 18 18 18 17 17 17 17 17 17 17 17
17 17 17 18 18 18 18 18 19 19 19 19 20 20 20 20 20 20 21 21 21 22 22 22 22 21 21 20 20 20 20 19 19 19 19 19 19 18 18 18 18 18 18
18 17 17 18 19 18 18 19 19 19 20 20 20 20 20 20 20 21 21 21 21 21 21 22 22 22 21 21 21 21 21 21 21 20 20 20 20 20 19 19 19 19 19
19 19 19 19 20 20 19 20 20 19 20 21 21 21 21 21 20 20 20 20 20 20 20 21 21 22 21 21 21 21 22 22 21 21 21 21 21 22 22 21 20 20 20
20 20 20 20 20 21 22 22 22 22 21 21 21 22 21 21 21 20 21 20 20 20 20 21 21 21 22 22 22 22 23 23 23 22 22 23 22 23 22 22 22 21 21
22 22 22 21 22 22 22 23 23 24 23 22 22 22 22 22 22 22 22 22 22 22 21 21 22 22 23 23 23 23 23 24 24 23 23 24 24 24 24 23 22 22 22
23 23 23 24 24 24 24 24 24 25 24 23 22 22 22 22 22 22 22 22 22 22 22 22 22 22 21 21 22 24 24 24 25 25 25 25 25 25 25 24 24 24 24
24 24 25 25 25 25 25 25 25 25 25 24 24 23 23 23 23 23 23 24 23 23 23 23 23 23 22 22 22 24 25 25 25 25 25 25 26 26 25 25 25 25 25
25 26 26 26 26 26 26 26 26 25 25 24 24 25 25 24 23 23 24 23 23 24 24 23 23 23 23 23 23 24 25 26 26 26 25 25 26 26 26 26 26 26 26
26 27 27 27 27 27 27 27 27 25 25 25 25 25 25 25 24 24 24 24 24 24 24 24 24 24 24 24 23 24 25 26 27 27 27 26 26 26 26 26 26 26 27
27 28 28 27 27 27 28 28 28 26 27 27 26 26 26 26 25 24 24 24 24 24 23 24 24 24 24 24 24 24 25 26 26 27 27 26 26 26 26 27 26 27 27
28 29 30 30 29 28 27 28 28 27 27 27 27 27 26 25 25 25 24 24 24 24 24 23 23 24 24 25 25 25 25 25 26 26 26 27 26 26 26 27 27 27 28
29 30 31 31 30 29 29 28 28 27 26 26 26 27 26 26 25 25 25 25 25 25 25 25 25 24 24 25 25 25 25 25 26 26 26 26 26 27 27 27 28 28 28
30 31 31 31 30 29 29 29 28 27 27 27 27 26 26 25 25 26 25 25 26 25 25 25 25 25 25 24 24 25 25 26 26 26 26 26 27 28 28 28 28 29 29
30 30 31 31 30 30 29 29 29 28 28 27 26 26 26 26 25 25 25 25 25 25 24 25 25 25 25 24 24 25 25 25 25 25 25 26 27 28 28 29 29 29 29
30 30 30 30 30 30 29 28 28 28 27 27 26 25 25 24 25 25 25 24 25 25 25 25 25 24 24 23 24 25 25 24 25 25 25 26 26 27 28 28 28 29 29
30 31 31 30 29 29 29 28 27 26 26 26 25 25 24 24 23 24 24 23 24 24 24 24 24 23 23 23 23 24 24 24 24 25 25 25 25 26 27 27 28 29 29
30 31 31 31 31 30 29 27 26 26 25 25 24 23 23 23 23 23 23 23 22 22 23 23 23 22 23 23 23 23 24 24 23 23 24 24 25 25 26 27 28 28 29
Wind_Direction
354 350 347 342 338 334 329 327 324 324 321 316 312 309 307 306 305 303 301 299 297 295 292 290 287 283 281 280 278 276 273 270 268 261 257 254 253 253 251 248 246 241 236
348 345 339 334 331 330 325 323 320 318 316 314 311 306 304 303 303 300 299 298 296 294 292 289 286 283 281 279 276 275 275 272 270 266 262 257 255 254 251 248 245 243 241
343 339 336 331 327 325 321 318 317 315 313 311 308 304 301 299 299 298 296 296 294 293 291 289 286 283 280 278 277 276 276 275 272 270 266 261 257 254 251 247 246 245 243
339 335 332 330 326 324 321 318 316 316 312 309 307 304 300 298 297 295 293 293 292 290 288 287 286 283 281 278 276 276 276 275 273 272 268 264 261 257 252 249 249 248 246
335 331 329 327 325 324 323 320 315 314 312 308 305 302 299 296 295 293 291 290 289 287 286 284 283 282 281 278 276 276 276 274 272 271 269 267 262 258 255 253 249 249 248
328 328 325 322 322 322 320 318 315 315 312 309 306 302 298 296 292 289 288 287 286 285 283 281 279 279 278 278 276 274 274 272 271 269 268 267 263 259 256 253 251 250 250
321 323 322 321 321 320 317 315 315 315 311 308 306 303 300 296 292 288 287 286 286 284 281 279 277 276 276 276 276 274 272 270 268 267 267 267 262 261 258 254 252 250 249
321 320 319 319 317 316 315 313 314 315 313 310 308 303 302 297 294 291 286 285 284 281 280 279 278 276 275 274 274 273 271 269 267 265 264 264 262 259 257 256 254 252 249
319 316 316 315 314 314 314 312 311 312 312 310 308 305 303 300 296 294 290 288 286 283 278 278 278 276 274 272 271 271 270 268 267 264 263 263 261 258 256 255 256 254 252
316 315 314 312 311 311 309 308 311 311 310 310 308 307 304 301 297 294 293 290 288 285 281 278 278 275 272 270 269 268 267 268 266 264 263 262 260 257 256 256 255 254 253
313 312 310 310 309 307 305 305 306 307 308 308 307 305 303 300 295 292 294 290 288 286 281 279 278 276 271 268 267 266 266 266 266 263 261 261 259 258 257 256 254 253 251
311 309 308 307 305 304 303 302 301 303 304 305 305 303 301 299 295 292 292 291 290 287 283 280 277 273 270 269 267 264 264 264 265 263 261 259 258 259 259 255 254 252 251
310 309 308 307 304 303 303 303 305 304 303 302 301 301 300 297 296 292 290 292 290 289 285 282 279 275 273 269 265 263 262 263 263 262 260 258 258 258 257 257 256 253 251
309 309 308 306 304 303 303 304 304 305 303 301 298 299 299 297 296 294 290 290 290 289 286 284 278 276 273 270 267 263 261 262 263 263 259 257 257 258 259 257 255 253 251
307 307 306 307 307 304 303 303 302 302 302 299 296 296 297 296 294 292 290 289 287 287 284 283 278 273 273 272 271 267 265 263 262 261 260 258 257 257 258 257 255 254 253
304 305 306 306 305 303 301 300 299 298 298 296 294 293 292 292 292 291 290 289 288 285 284 283 281 277 276 274 272 268 265 264 264 263 261 259 257 255 255 255 254 253 254
302 304 306 305 304 302 302 302 300 296 294 294 293 293 291 291 290 289 290 290 288 287 286 284 280 280 278 276 274 271 266 266 265 262 261 260 258 256 256 256 255 254 254
306 306 306 304 303 303 302 303 299 296 295 293 293 292 290 290 291 291 289 288 288 287 286 283 281 279 278 277 274 271 268 266 265 263 260 260 258 256 257 256 255 254 254
308 306 305 302 302 301 301 302 300 296 296 295 291 290 289 289 290 292 290 289 288 286 285 283 281 279 278 278 275 271 268 267 265 264 262 260 259 258 259 257 256 255 254
306 305 305 304 301 301 301 301 300 297 299 296 292 291 290 289 289 290 288 289 289 287 285 283 280 281 280 278 274 271 267 266 265 264 263 260 258 258 258 257 257 255 255
304 305 304 306 304 302 300 300 299 299 300 299 294 295 290 291 291 289 287 287 286 286 286 283 281 280 280 278 275 272 269 267 266 263 261 259 257 258 258 257 257 256 256
303 304 304 304 303 302 300 299 300 299 299 299 297 295 292 291 289 291 289 288 286 285 283 282 281 279 278 277 276 273 270 268 267 264 262 262 260 258 257 257 257 257 257
303 302 302 302 300 300 300 299 299 299 298 298 297 297 293 292 291 291 290 287 286 285 283 282 280 280 278 276 276 274 270 266 265 265 265 263 261 259 259 258 256 256 256
306 306 303 302 301 300 301 300 299 298 299 299 297 297 297 295 293 293 289 286 286 285 283 282 281 280 278 276 276 274 271 266 263 262 264 263 261 259 259 258 256 255 254
309 308 305 302 301 300 300 299 298 297 298 298 297 296 297 296 296 296 292 288 288 287 284 284 282 280 278 277 277 276 273 269 267 264 264 263 261 260 258 258 257 256 255
310 308 306 305 306 302 299 298 299 298 297 298 298 298 298 299 296 294 291 289 288 289 287 285 283 281 279 278 279 278 275 271 268 264 264 263 262 262 260 258 258 258 256
Height
5900 5899 5897 5896 5895 5894 5893 5892 5891 5890 5889 5887 5886 5885 5884 5883 5882 5881 5880 5878 5877 5876 5875 5874 5873 5872 5872 5871 5870 5869 5869 5868 5868 5867 5866 5866 5866 5866 5866 5866 5866 5866 5867
5899 5898 5896 5895 5894 5893 5892 5890 5889 5888 5887 5886 5885 5884 5882 5881 5880 5879 5878 5876 5875 5874 5873 5872 5871 5871 5870 5869 5868 5867 5867 5866 5866 5865 5865 5864 5864 5864 5864 5864 5864 5864 5865
5898 5897 5895 5894 5893 5891 5890 5889 5888 5886 5885 5884 5883 5882 5880 5879 5878 5877 5876 5874 5873 5872 5871 5870 5869 5868 5867 5867 5866 5865 5865 5864 5864 5863 5863 5862 5862 5862 5862 5862 5862 5862 5863
5897 5896 5894 5893 5891 5890 5889 5887 5886 5884 5883 5882 5881 5880 5878 5877 5876 5875 5874 5872 5871 5870 5869 5868 5867 5866 5865 5864 5863 5863 5862 5862 5862 5861 5860 5860 5860 5860 5860 5860 5860 5860 5861
5896 5894 5893 5891 5890 5888 5887 5885 5884 5882 5881 5880 5878 5877 5876 5874 5873 5872 5871 5870 5868 5867 5866 5865 5864 5863 5862 5861 5860 5860 5859 5859 5859 5858 5858 5858 5858 5857 5857 5857 5858 5858 5859
5894 5893 5891 5889 5888 5886 5884 5883 5881 5880 5878 5877 5876 5874 5873 5871 5870 5869 5868 5866 5865 5864 5863 5862 5861 5860 5859 5858 5857 5857 5856 5856 5856 5855 5855 5855 5855 5855 5855 5855 5856 5856 5856
5892 5891 5889 5887 5885 5884 5882 5880 5879 5877 5876 5874 5873 5871 5870 5868 5867 5865 5864 5863 5862 5861 5860 5858 5857 5856 5855 5855 5854 5853 5853 5853 5853 5852 5852 5852 5852 5852 5852 5852 5853 5853 5854
5890 5889 5887 5885 5883 5881 5880 5878 5877 5875 5873 5871 5869 5868 5866 5864 5863 5862 5860 5859 5858 5857 5856 5855 5854 5853 5852 5851 5850 5850 5850 5849 5849 5849 5849 5849 5849 5849 5849 5849 5850 5850 5851
5888 5886 5884 5882 5881 5879 5877 5876 5874 5872 5870 5868 5866 5864 5862 5861 5859 5857 5856 5855 5853 5852 5851 5850 5849 5848 5847 5847 5846 5846 5845 5845 5846 5846 5846 5845 5845 5845 5845 5846 5847 5847 5848
5886 5884 5881 5880 5878 5876 5874 5872 5870 5869 5866 5864 5862 5860 5858 5856 5855 5853 5851 5850 5848 5847 5846 5845 5844 5843 5842 5842 5842 5841 5841 5841 5841 5841 5842 5842 5842 5841 5842 5842 5843 5843 5844
5883 5881 5879 5877 5875 5873 5870 5868 5867 5865 5863 5861 5858 5856 5854 5852 5850 5848 5846 5845 5843 5842 5841 5840 5839 5838 5837 5837 5837 5836 5836 5836 5836 5837 5837 5837 5837 5837 5837 5838 5838 5839 5840
5880 5878 5876 5874 5871 5869 5866 5864 5862 5860 5858 5856 5854 5852 5850 5848 5846 5844 5842 5841 5839 5838 5836 5835 5834 5833 5832 5832 5832 5831 5831 5831 5831 5831 5832 5832 5832 5832 5833 5834 5834 5834 5835
5876 5874 5871 5870 5867 5865 5862 5860 5858 5856 5854 5851 5849 5847 5845 5843 5841 5839 5837 5835 5834 5833 5832 5830 5829 5828 5827 5827 5826 5826 5825 5825 5826 5826 5826 5827 5827 5827 5828 5828 5829 5829 5830
5872 5870 5868 5865 5863 5860 5858 5856 5853 5851 5849 5846 5844 5842 5840 5838 5836 5834 5832 5831 5829 5828 5827 5825 5824 5823 5822 5821 5821 5820 5820 5820 5820 5820 5821 5821 5822 5822 5822 5823 5824 5824 5825
5868 5866 5863 5861 5858 5856 5853 5851 5848 5846 5843 5841 5839 5836 5835 5833 5831 5829 5827 5826 5824 5822 5821 5820 5818 5817 5817 5816 5815 5815 5815 5814 5814 5814 5815 5815 5816 5816 5817 5817 5818 5819 5819
5863 5861 5858 5856 5853 5850 5848 5845 5843 5840 5838 5835 5833 5831 5828 5827 5825 5823 5822 5820 5818 5817 5815 5814 5813 5812 5811 5810 5809 5809 5808 5808 5808 5808 5808 5809 5810 5810 5810 5811 5811 5812 5813
5858 5855 5853 5850 5847 5845 5842 5839 5836 5833 5831 5829 5827 5824 5822 5820 5818 5817 5815 5813 5812 5810 5809 5808 5807 5805 5804 5803 5803 5802 5802 5802 5801 5802 5802 5803 5803 5803 5804 5804 5804 5806 5807
5853 5850 5847 5844 5842 5839 5836 5833 5830 5826 5824 5822 5820 5818 5816 5814 5812 5810 5809 5807 5805 5804 5802 5801 5800 5799 5798 5796 5796 5795 5795 5795 5795 5795 5795 5796 5796 5797 5797 5797 5798 5799 5800
5848 5844 5841 5838 5835 5832 5829 5826 5823 5820 5818 5815 5813 5812 5809 5807 5805 5803 5802 5800 5799 5798 5796 5795 5794 5792 5792 5790 5789 5788 5788 5788 5788 5788 5788 5788 5789 5789 5790 5791 5791 5792 5793
5841 5838 5835 5832 5828 5825 5822 5819 5815 5813 5811 5808 5806 5804 5802 5799 5798 5796 5795 5793 5792 5791 5789 5788 5787 5786 5785 5783 5783 5782 5781 5781 5781 5781 5781 5781 5781 5782 5783 5784 5784 5785 5786
5835 5831 5828 5824 5820 5817 5815 5811 5808 5806 5803 5801 5799 5797 5795 5792 5790 5788 5787 5786 5785 5783 5782 5781 5780 5779 5778 5776 5776 5775 5774 5774 5774 5773 5773 5774 5774 5775 5775 5776 5777 5777 5778
5828 5825 5821 5817 5814 5811 5807 5805 5802 5799 5797 5795 5793 5790 5788 5786 5784 5782 5780 5779 5777 5775 5775 5774 5773 5772 5771 5769 5768 5768 5767 5767 5766 5766 5766 5766 5766 5767 5767 5768 5768 5769 5770
5822 5818 5815 5811 5807 5804 5801 5799 5796 5793 5790 5788 5786 5783 5781 5778 5776 5774 5772 5771 5769 5769 5768 5767 5766 5765 5764 5762 5761 5760 5759 5759 5759 5759 5759 5759 5759 5759 5759 5759 5760 5761 5762
5816 5812 5809 5805 5801 5798 5795 5792 5789 5786 5784 5782 5779 5777 5774 5771 5769 5767 5765 5764 5763 5762 5761 5760 5759 5757 5756 5755 5754 5752 5752 5751 5751 5752 5751 5751 5751 5751 5751 5751 5752 5753 5753
5809 5806 5802 5798 5795 5791 5788 5784 5782 5779 5777 5775 5773 5770 5768 5766 5763 5761 5759 5758 5756 5755 5754 5752 5751 5750 5748 5747 5746 5745 5744 5743 5743 5743 5743 5743 5743 5743 5743 5743 5744 5744 5745
5803 5799 5795 5791 5787 5784 5780 5777 5774 5772 5770 5769 5766 5764 5762 5760 5757 5755 5753 5752 5750 5748 5747 5745 5744 5743 5741 5740 5739 5738 5737 5736 5735 5735 5735 5735 5735 5735 5734 5735 5735 5736 5737